Location: Alphen aan den Rijn
(52.1277°N, 4.6689°E)
Time: 17:55:13
(UTC+02:00)

ISS - Visible Passes

Search period start: 24 September 2017 00:00
Search period end: 04 October 2017 00:00
Orbit: 401 x 407 km, 51.6° (Epoch: 25 September)

Date Brightness Start Highest point End Pass type
(mag) Time Alt. Az. Time Alt. Az. Time Alt. Az.
26 Sep -1.6 20:28:49 10° SSE 20:29:39 11° SE 20:29:49 11° SE visible
26 Sep -0.9 22:02:21 10° SW 22:02:30 11° SW 22:02:30 11° SW visible
27 Sep -2.6 21:10:20 10° SSW 21:12:39 26° S 21:12:39 26° S visible
28 Sep -2.2 20:18:35 10° SSW 20:21:00 19° SE 20:22:38 14° ESE visible
28 Sep -1.9 21:53:48 10° WSW 21:55:17 24° WSW 21:55:17 24° WSW visible
29 Sep -3.5 21:01:34 10° SW 21:04:42 45° SSE 21:05:07 42° SE visible
29 Sep -0.5 22:37:46 10° W 22:37:47 10° W 22:37:47 10° W visible
30 Sep -2.8 20:09:27 10° SW 20:12:24 32° SSE 20:14:52 13° E visible
30 Sep -2.5 21:45:22 10° WSW 21:47:31 38° WSW 21:47:31 38° WSW visible
01 Oct -3.8 20:53:00 10° WSW 20:56:14 65° SSE 20:57:10 41° E visible
01 Oct -0.7 22:29:22 10° W 22:29:48 13° W 22:29:48 13° W visible
02 Oct -3.4 20:00:40 10° SW 20:03:51 50° SSE 20:06:45 12° E visible
02 Oct -2.9 21:36:56 10° W 21:39:24 47° W 21:39:24 47° W visible
03 Oct -3.9 20:44:30 10° W 20:47:46 80° S 20:48:57 37° E visible
03 Oct -0.8 22:20:56 10° W 22:21:35 15° W 22:21:35 15° W visible
